KFPRKEYW

Guest
Details From KFPR - St Lucie Co Intl
To KEYW - Key West Intl
Flight Number -
Tags generated
Created
Modified
Stats Distance 192 nm / 356 km
Max Altitude 20,900 ft / 6,370 m
Waypoints 3
Social Downloads 0
Likes 0
Share VATSIM

Download

Looking for another format? Having issues loading an existing format? Contact us
Advertisement - Login to hide

Notes

Basic altitude profile: - Ascent Rate: 750ft/min - Ascent Speed: 250kts - Cruise Altitude: 18000ft - Cruise Speed: 420kts - Descent Rate: 500ft/min - Descent Speed: 250kts Options: - Use NATs: yes - Use PACOTS: yes - Use low airways: no - Use high airways: yes

Route

KFPR KUBIC KEYW

ID Type Via Altitude Latitude Longitude Leg Dist Tot Dist Heading (true) Name
O KFPR APT - 0 ft / 0 m 27.49466˚ -80.36807˚ - 0 nm - St Lucie Co Intl
KUBIC FIX - 20,900 ft / 6,370 m 26.09766˚ -80.94952˚ 89 nm 89 nm 201° / 200° -
O KEYW APT - 0 ft / 0 m 24.55612˚ -81.75955˚ 102 nm 191 nm 206° / 205° Key West Intl

Altitude Profile

Advertisement - Login to hide

Weather


0- 5 10 15 20 25 30 35+ Temperature / ° C

Clouds and Precipitation
Forecast for 2018-05-23 12:00 UTC. Updated 4 minutes ago

Ground ~20,000 ft ~40,000 ft Winds

KFPR

Details ICAO KFPR (FRP)
Name St Lucie Co Intl
Region United States
Timezone America/New_York (UTC-4.0)
Stats Elevation 23 ft / 7 m (AMSL)
Location 27.494664° -80.368073°
Runways 2
Magnetic Variation 6.889° W

METAR

KFPR 231053Z 00000KT 10SM CLR 19/19 A3009 RMK AO2 SLP189 T01940194

Decode

TAF

TAF KFPR 230520Z 2306/2406 VRB02KT P6SM VCSH FEW020 FEW035 SCT150 FM231500 12009KT P6SM VCSH SCT025 BKN050 TEMPO 2316/2318 3SM SHRA BKN025 FM240000 11004KT P6SM FEW025 SCT035 SCT120

Decode

Departure Runways

ID Width Length Bearing (true) Bearing (mag) Surface Threshold Offset Overrun Length
09 150 ft / 46 m 6,481 ft / 1,975 m 90.47° 97.36° Asphalt 0 ft / 0 m 200 ft / 61 m
14 100 ft / 30 m 4,762 ft / 1,451 m 135.63° 142.52° Asphalt 0 ft / 0 m 0 ft / 0 m
27 150 ft / 46 m 6,481 ft / 1,975 m 270.48° 277.37° Asphalt 0 ft / 0 m 200 ft / 61 m
32 100 ft / 30 m 4,762 ft / 1,451 m 315.63° 322.52° Asphalt 0 ft / 0 m 0 ft / 0 m

KEYW

Details ICAO KEYW (EYW)
Name Key West Intl
Region United States
Timezone America/New_York (UTC-4.0)
Stats Elevation 2 ft / 1 m (AMSL)
Location 24.556124° -81.759546°
Runways 1
Magnetic Variation 5.593° W

METAR

KEYW 231053Z 11015KT 10SM FEW023 26/24 A3002 RMK AO2 SLP163 T02610239

Decode

TAF

TAF AMD KEYW 231023Z 2310/2406 10010G16KT P6SM FEW025 BKN100 FM231500 11010G18KT P6SM SCT025 BKN150

Decode

Destination Runways

ID Width Length Bearing (true) Bearing (mag) Surface Threshold Offset Overrun Length
09 100 ft / 30 m 4,794 ft / 1,461 m 89.38° 94.97° Asphalt 151 ft / 46 m 0 ft / 0 m
27 100 ft / 30 m 4,794 ft / 1,461 m 269.39° 274.98° Asphalt 151 ft / 46 m 0 ft / 0 m

Popular Alternatives